Regional Weather Roundup
Issued by NWS

Home | Current Version | Previous Version | Text Only | Print | Product List | Glossary On
Versions: 1 2 3 4 5 6 7 8 9 10 11 12 13 14 15 16 17 18 19 20 21 22 23 24 25 26 27 28 29 30 31 32 33 34 35 36 37 38 39 40 41 42 43 44 45 46 47 48 49 50
000
ASUS42 KKEY 290510
RWRKEY

FLORIDA REGIONAL WEATHER ROUNDUP FOR THE FLORIDA KEYS
NATIONAL WEATHER SERVICE KEY WEST FLORIDA
100 AM EDT TUE JUL 29 2014

...SOUTH FLORIDA AND THE KEYS...

CITY           SKY/WX    TMP DP  RH WIND       PRES   REMARKS
FORT MYERS     CLEAR     82  75  79 S3        30.01F
SW REGIONAL AP CLEAR     79  75  87 SW6       30.02F
NAPLES         PTCLDY    85  79  82 W6        30.03F HX  98
MIAMI          PTCLDY    83  74  74 W6        30.04F
WEST KENDALL   CLEAR     82  75  79 SW5       30.05S
HOMESTEAD      CLEAR     79  75  88 SW3       30.05S
MARATHON       PTCLDY    84  76  76 CALM      30.06R HX  93
BOCA CHICA NAS MOCLDY    86  75  69 NW3       30.06S HX  95
KEY WEST INTL  CLEAR     85  76  74 CALM      30.07S HX  94

...INTERNATIONAL WEATHER...

CITY           SKY/WX    TMP DP  RH WIND       PRES   REMARKS
NASSAU BAHAMAS PTCLDY    82  75  78 CALM      30.04F
CANCUN MEXICO  PTCLDY    82  79  89 E5        30.06F HX  93
COZUMEL MEXICO PTCLDY    77  77 100 E6        30.06F

ADJACENT COASTAL WATERS...

STATION/POSITION TIME  SKY/WX   TEMP    WIND        PRES    WAVE
                                AIR SEA DIR/SP/G            HT/PER
                 (UTC)          (F)     (DEG/KT/KT) (MB)    (FT/S)
PULASKI SHOAL LI 0500            85      CALM  /  1 1018.1F
SAND KEY         0500            85     340/  4/  6 1018.1R
SOMBRERO KEY     0500            85     170/  3/  3 1018.7R
LONG KEY         0400            86 92  300/  3/  4 1018.5R
MOLASSES REEF    0500            84 87  220/ 10/ 12 1017.3F
FOWEY ROCKS      0500            85 86  270/ 12/ 13 1017.6F
Buoy 42080       NOT AVBL

$$



USA.gov is the U.S. government's official web portal to all federal, state and local government web resources and services.